User: anonymous   Login
Location: Unspecified
(0.0000°N, 0.0000°E)
Time: 15:30:44
(UTC+00:00)
Language:

KAGAYAKI - Orbit

View from above orbital plane
View from above orbital plane
View from above satellite
View from above satellite

Ground track
Ground track

The orbit data is extracted from the following two-line orbital elements,

1 33495U 09002D   17323.93977499 +.00000026 +00000-0 +12547-4 0  9999
2 33495 098.3464 122.7331 0006933 250.6838 109.3618 14.72054714473324
Epoch (UTC): 19 November 2017 22:33:16
Eccentricity: 0.0006933
inclination: 98.3464°
perigee height: 649 km
apogee height: 659 km
right ascension of ascending node: 122.7331°
argument of perigee: 250.6838°
revolutions per day: 14.72054714
mean anomaly at epoch: 109.3618°
orbit number at epoch: 47332

The dashed part of the orbit path shows where the satellite is in the earth's shadow,  

DLR